DF1NIF-13 Weather Reports


time (UTC)temp
C
wind
direction
speed
KPH
gust
KPH
rain 1hr
cm
rain 24hr
cm
rain mn
cm
humidity
%
barometer
mb
20260831225403 15 157 3.2 8.0 0.00 0.00 0.00 88 972.7
20260831224918 15 157 3.2 14.5 0.00 0.00 0.00 88 972.7
20260831224448 15 157 0.0 11.3 0.00 0.00 0.00 88 972.5
20260831224008 15 157 0.0 4.8 0.00 0.00 0.00 88 972.6
20260831223528 15 220 0.0 8.0 0.00 0.00 0.00 88 972.6
20260831223118 15 220 0.0 4.8 0.00 0.00 0.00 88 972.5
20260831222633 15 220 0.0 4.8 0.00 0.00 0.00 88 972.5
20260831222143 15 257 0.0 4.8 0.00 0.00 0.00 88 972.6
20260831221723 15 359 4.8 8.0 0.00 0.00 0.00 88 972.7
20260831221243 15 359 1.6 4.8 0.00 0.00 0.00 88 972.7
20260831220819 15 359 4.8 1.6 0.00 0.00 0.00 88 972.4
20260831220343 15 359 4.8 8.0 0.00 0.00 0.00 83 972.6
20260831215853 15 359 0.0 0.0 0.00 0.00 0.00 83 972.6
20260831215438 15 344 0.0 0.0 0.00 0.00 0.00 83 972.5
20260831214948 15 344 0.0 1.6 0.00 0.00 0.00 83 972.8
20260831214523 16 344 11.3 17.7 0.00 0.00 0.00 83 972.7
20260831214043 16 344 3.2 17.7 0.00 0.00 0.00 83 972.6
20260831213603 16 344 3.2 11.3 0.00 0.00 0.00 64 972.6
20260831213148 16 353 3.2 8.0 0.00 0.00 0.00 64 972.5
20260831212723 16 306 3.2 22.5 0.00 0.00 0.00 64 972.3
20260831212248 16 306 3.2 22.5 0.00 0.00 0.00 64 972.3
20260831211819 16 306 12.9 29.0 0.00 0.00 0.00 64 972.5
20260831211408 16 265 6.4 14.5 0.00 0.00 0.00 64 972.5
20260831210938 16 265 1.6 14.5 0.00 0.00 0.00 64 972.3
20260831210458 16 265 1.6 4.8 0.00 0.00 0.00 64 972.2
20260831210039 16 265 1.6 1.6 0.00 0.00 0.00 64 972.0
20260831205553 16 265 1.6 4.8 0.00 0.00 0.00 64 971.9
20260831205133 16 265 1.6 4.8 0.00 0.00 0.00 64 972.1
20260831204639 16 178 1.6 8.0 0.00 0.00 0.00 64 971.8
20260831204203 16 306 1.6 8.0 0.00 0.00 0.00 64 971.7
20260831203719 16 312 1.6 4.8 0.00 0.00 0.00 64 971.7
20260831203243 16 312 6.4 4.8 0.00 0.00 0.00 64 971.7
20260831202811 16 275 3.2 4.8 0.00 0.00 0.00 64 971.8
20260831202348 16 275 3.2 8.0 0.00 0.00 0.00 64 971.5
20260831201938 18 275 3.2 11.3 0.00 0.00 0.00 64 971.5
20260831201513 18 275 1.6 8.0 0.00 0.00 0.00 64 971.6
20260831201033 18 275 3.2 14.5 0.00 0.00 0.00 64 971.6
20260831200618 18 275 3.2 14.5 0.00 0.00 0.00 64 971.4
20260831200153 18 275 4.8 17.7 0.00 0.00 0.00 64 971.4
20260831195708 18 134 16.1 17.7 0.00 0.00 0.00 64 971.4
20260831195218 18 300 16.1 14.5 0.00 0.00 0.00 64 971.3
20260831194758 18 300 9.7 22.5 0.00 0.00 0.00 64 971.2
20260831194338 18 300 9.7 17.7 0.00 0.00 0.00 64 971.2
20260831193918 18 300 9.7 32.2 0.00 0.00 0.00 64 971.1
20260831193502 18 300 9.7 11.3 0.00 0.00 0.00 64 971.0
20260831193033 18 197 9.7 29.0 0.00 0.00 0.00 64 971.0
20260831192628 18 197 8.0 37.0 0.00 0.00 0.00 60 971.0
20260831192219 18 197 8.0 37.0 0.00 0.00 0.00 60 970.9
20260831191748 18 197 4.8 35.4 0.00 0.00 0.00 60 971.0
20260831191313 18 212 11.3 22.5 0.00 0.00 0.00 60 970.8
20260831190848 18 212 6.4 25.7 0.00 0.00 0.00 60 970.6
20260831190418 18 212 4.8 25.7 0.00 0.00 0.00 60 970.7
20260831185953 18 250 4.8 25.7 0.00 0.00 0.00 49 970.7
20260831185519 18 250 4.8 32.2 0.00 0.00 0.00 49 970.7
20260831185045 18 250 4.8 32.2 0.00 0.00 0.00 49 970.9
20260831184613 18 250 4.8 29.0 0.00 0.00 0.00 49 970.9
20260831184148 18 315 4.8 25.7 0.00 0.00 0.00 49 970.8
20260831183728 19 315 4.8 17.7 0.00 0.00 0.00 49 970.7
20260831183259 19 342 11.3 25.7 0.00 0.00 0.00 49 970.5
20260831182833 19 289 9.7 25.7 0.00 0.00 0.00 49 970.7
20260831182423 20 319 9.7 25.7 0.00 0.00 0.00 49 970.3
20260831181939 20 319 9.7 22.5 0.00 0.00 0.00 49 970.2
20260831181448 20 319 6.4 32.2 0.00 0.00 0.00 49 970.0
20260831181013 20 314 6.4 17.7 0.00 0.00 0.00 49 969.7
20260831180603 20 314 4.8 22.5 0.00 0.00 0.00 49 969.5
20260831180135 20 314 4.8 20.9 0.00 0.00 0.00 49 969.2
20260831175723 20 314 9.7 20.9 0.00 0.00 0.00 44 969.1
20260831175301 20 314 12.9 22.5 0.00 0.00 0.00 44 969.0
20260831174828 20 314 3.2 14.5 0.00 0.00 0.00 44 969.0
20260831174403 20 314 11.3 14.5 0.00 0.00 0.00 44 969.2
20260831173943 20 341 11.3 14.5 0.00 0.00 0.00 44 969.2
20260831173525 20 341 11.3 8.0 0.00 0.00 0.00 44 969.2
20260831173103 20 341 3.2 8.0 0.00 0.00 0.00 44 969.2
20260831172653 20 341 3.2 20.9 0.00 0.00 0.00 44 969.1
20260831172218 20 341 3.2 20.9 0.00 0.00 0.00 44 969.2
20260831171759 20 341 9.7 17.7 0.00 0.00 0.00 44 969.3
20260831171323 20 256 6.4 22.5 0.00 0.00 0.00 44 969.3
20260831170858 20 267 12.9 20.9 0.00 0.00 0.00 44 969.3
20260831170439 20 267 3.2 17.7 0.00 0.00 0.00 44 969.2
20260831165959 21 289 3.2 17.7 0.00 0.00 0.00 44 969.2
20260831165548 21 289 0.0 17.7 0.00 0.00 0.00 44 969.3
20260831165118 21 289 8.0 20.9 0.00 0.00 0.00 44 969.3
20260831164633 21 296 4.8 32.2 0.00 0.00 0.00 44 969.6
20260831164148 21 271 14.5 37.0 0.00 0.00 0.00 44 969.3
20260831163743 21 271 6.4 32.2 0.00 0.00 0.00 44 969.4
20260831163333 21 334 12.9 35.4 0.00 0.00 0.00 44 969.4
20260831162859 21 334 12.9 22.5 0.00 0.00 0.00 44 969.4
20260831162413 22 301 6.4 32.2 0.00 0.00 0.00 44 969.3
20260831161933 22 151 6.4 29.0 0.00 0.00 0.00 44 969.0
20260831161503 22 138 14.5 17.7 0.00 0.00 0.00 42 969.2
20260831161053 22 138 14.5 17.7 0.00 0.00 0.00 42 969.2
20260831160638 22 253 17.7 37.0 0.00 0.00 0.00 41 969.2
20260831160158 22 253 4.8 11.3 0.00 0.00 0.00 41 969.3
20260831155719 22 333 0.0 14.5 0.00 0.00 0.00 100 969.4
20260831155248 21 329 12.9 37.0 0.00 0.00 0.00 42 969.2
20260831154758 21 323 12.9 17.7 0.00 0.00 0.00 42 969.2
20260831154339 21 264 8.0 29.0 0.00 0.00 0.00 42 969.0
20260831153933 21 99 6.4 32.2 0.00 0.00 0.00 42 969.0
20260831153438 22 267 19.3 40.2 0.00 0.00 0.00 44 969.1
20260831152958 22 267 19.3 57.9 0.00 0.00 0.00 44 969.0
20260831152513 22 197 9.7 32.2 0.00 0.00 0.00 44 969.2
20260831152048 22 308 9.7 54.7 0.00 0.00 0.00 44 969.3
20260831151613 22 125 9.7 20.9 0.00 0.00 0.00 44 969.1
20260831151143 22 125 4.8 20.9 0.00 0.00 0.00 44 968.9
20260831150713 22 277 9.7 11.3 0.00 0.00 0.00 44 969.2
20260831150238 22 277 19.3 35.4 0.00 0.00 0.00 44 969.1
20260831145758 22 114 19.3 35.4 0.00 0.00 0.00 44 969.2
20260831145328 22 114 16.1 22.5 0.00 0.00 0.00 46 969.2
20260831144923 22 114 19.3 25.7 0.00 0.00 0.00 46 969.3
20260831144458 22 114 16.1 25.7 0.00 0.00 0.00 47 969.1
20260831144043 22 328 4.8 25.7 0.00 0.00 0.00 47 969.2
20260831143603 22 316 11.3 32.2 0.00 0.00 0.00 47 969.2
20260831143143 22 350 11.3 35.4 0.00 0.00 0.00 48 969.2
20260831142713 22 269 6.4 37.0 0.00 0.00 0.00 48 969.0
20260831142228 22 157 6.4 22.5 0.00 0.00 0.00 48 969.4
20260831141753 22 271 19.3 22.5 0.00 0.00 0.00 48 969.2
20260831141328 22 298 6.4 22.5 0.00 0.00 0.00 48 969.2
20260831140903 22 239 16.1 40.2 0.00 0.00 0.00 48 968.9
20260831140438 21 126 12.9 22.5 0.00 0.00 0.00 48 969.1
20260831140028 21 126 12.9 25.7 0.00 0.00 0.00 48 969.2
20260831135603 22 206 12.9 46.7 0.00 0.00 0.00 48 968.9
20260831135138 22 320 6.4 40.2 0.00 0.00 0.00 48 969.3
20260831134708 22 281 9.7 17.7 0.00 0.00 0.00 48 969.2
20260831134233 22 114 6.4 17.7 0.00 0.00 0.00 48 969.4
20260831133823 22 114 9.7 25.7 0.00 0.00 0.00 52 969.4
20260831133343 22 114 8.0 35.4 0.00 0.00 0.00 52 969.1
20260831132938 22 152 6.4 29.0 0.00 0.00 0.00 52 969.2
20260831132503 21 259 8.0 35.4 0.00 0.00 0.00 51 969.4
20260831132058 21 259 4.8 17.7 0.00 0.00 0.00 51 969.4
20260831131619 21 276 14.5 22.5 0.00 0.00 0.00 51 969.5
20260831131213 21 315 14.5 32.2 0.00 0.00 0.00 51 969.5
20260831130723 21 352 8.0 32.2 0.00 0.00 0.00 51 969.6
20260831130253 21 129 14.5 35.4 0.00 0.00 0.00 51 969.5
20260831125828 21 228 22.5 29.0 0.00 0.00 0.00 51 969.6
20260831125358 22 228 9.7 29.0 0.00 0.00 0.00 51 969.4
20260831124943 22 133 6.4 29.0 0.00 0.00 0.00 56 969.4
20260831124508 21 133 11.3 29.0 0.00 0.00 0.00 56 969.6
20260831124048 21 296 11.3 25.7 0.00 0.00 0.00 56 969.5
20260831123613 21 311 3.2 40.2 0.00 0.00 0.00 56 969.3
20260831123138 20 311 3.2 11.3 0.00 0.00 0.00 56 969.7
20260831122718 21 311 19.3 20.9 0.00 0.00 0.00 56 969.5
20260831122251 21 186 22.5 29.0 0.00 0.00 0.00 56 969.4
20260831121838 21 153 9.7 20.9 0.00 0.00 0.00 56 969.7
20260831121403 20 329 9.7 20.9 0.00 0.00 0.00 56 969.5
20260831120928 20 143 9.7 37.0 0.00 0.00 0.00 56 969.7
20260831120458 20 143 4.8 1.6 0.00 0.00 0.00 56 969.7
20260831120028 20 143 8.0 1.6 0.00 0.00 0.00 56 969.4
20260831115527 20 32 14.5 11.3 0.00 0.00 0.00 58 969.6
20260831115118 20 32 14.5 11.3 0.00 0.00 0.00 58 969.6
20260831114633 20 15 14.5 11.3 0.00 0.00 0.00 58 969.6
20260831114218 20 15 8.0 11.3 0.00 0.00 0.00 59 969.6
20260831113753 20 319 4.8 20.9 0.00 0.00 0.00 58 969.7
20260831113323 20 308 9.7 22.5 0.00 0.00 0.00 58 969.5
20260831112858 20 308 8.0 25.7 0.00 0.00 0.00 58 969.5
20260831112403 20 320 8.0 25.7 0.00 0.00 0.00 57 969.6
20260831111933 21 320 6.4 25.7 0.00 0.00 0.00 57 969.7
20260831111513 20 320 6.4 25.7 0.00 0.00 0.00 59 969.9
20260831111038 21 128 11.3 32.2 0.00 0.00 0.00 59 969.7
20260831110558 21 139 8.0 25.7 0.00 0.00 0.00 59 969.6
20260831110138 21 158 20.9 35.4 0.00 0.00 0.00 59 969.7
20260831105708 20 110 20.9 35.4 0.00 0.00 0.00 59 969.7
20260831105218 20 280 8.0 35.4 0.00 0.00 0.00 63 969.9
20260831104759 20 280 16.1 35.4 0.00 0.00 0.00 63 969.8
20260831104348 20 287 11.3 46.7 0.00 0.00 0.00 63 969.7
20260831103859 20 210 3.2 22.5 0.00 0.00 0.00 63 969.7
20260831103408 20 322 9.7 22.5 0.00 0.00 0.00 64 969.6
20260831102918 19 324 9.7 25.7 0.00 0.00 0.00 64 969.6
20260831102453 19 303 9.7 25.7 0.00 0.00 0.00 68 969.7
20260831102033 19 292 11.3 25.7 0.00 0.00 0.00 68 969.6
20260831101603 20 211 9.7 25.7 0.00 0.00 0.00 68 969.6
20260831101123 20 243 9.7 25.7 0.00 0.00 0.00 68 969.5
20260831100633 18 306 17.7 35.4 0.00 0.00 0.00 68 969.7
20260831100158 18 310 9.7 17.7 0.00 0.00 0.00 68 969.8
20260831095739 19 336 9.7 20.9 0.00 0.00 0.00 68 969.8
20260831095319 18 315 8.0 22.5 0.00 0.00 0.00 68 969.8
20260831094843 18 293 14.5 22.5 0.00 0.00 0.00 68 969.7
20260831094408 18 113 3.2 22.5 0.00 0.00 0.00 72 969.8
20260831093958 18 113 0.0 17.7 0.00 0.00 0.00 71 969.7
20260831093528 18 240 3.2 20.9 0.00 0.00 0.00 71 970.1
20260831093113 18 87 8.0 14.5 0.00 0.00 0.00 71 969.9
20260831092638 18 87 11.3 20.9 0.00 0.00 0.00 71 970.0
20260831092223 18 328 4.8 20.9 0.00 0.00 0.00 71 969.9
20260831091808 18 330 4.8 14.5 0.00 0.00 0.00 71 969.9
20260831091339 20 114 4.8 14.5 0.00 0.00 0.00 71 970.1
20260831090923 20 94 4.8 40.2 0.00 0.00 0.00 71 969.8
20260831090458 18 292 6.4 17.7 0.00 0.00 0.00 71 970.0
20260831090019 18 355 4.8 25.7 0.00 0.00 0.00 75 969.8
20260831085539 18 331 4.8 25.7 0.00 0.00 0.00 75 969.8
20260831085113 18 333 6.4 11.3 0.00 0.00 0.00 75 969.7
20260831084633 18 305 8.0 14.5 0.00 0.00 0.00 75 969.8
20260831084208 18 307 17.7 25.7 0.00 0.00 0.00 75 969.7
20260831083753 17 307 17.7 25.7 0.00 0.00 0.00 75 969.8
20260831083333 17 329 16.1 35.4 0.00 0.00 0.00 75 969.8
20260831082913 17 321 17.7 43.5 0.00 0.00 0.00 75 969.7
20260831082508 17 350 0.0 43.5 0.00 0.00 0.00 75 969.8
20260831082019 17 263 0.0 43.5 0.00 0.00 0.00 100 970.0
20260831081548 17 284 6.4 22.5 0.00 0.00 0.00 78 969.9
20260831081111 17 310 11.3 22.5 0.00 0.00 0.00 86 969.5
20260831080658 17 207 8.0 32.2 0.00 0.00 0.00 86 969.5
20260831080243 17 328 8.0 17.7 0.00 0.00 0.00 86 969.5
20260831075828 17 328 6.4 43.5 0.00 0.00 0.00 86 969.5
20260831075358 17 328 8.0 43.5 0.00 0.00 0.00 86 969.7
20260831074928 17 113 8.0 11.3 0.00 0.00 0.00 86 969.4
20260831074518 17 113 8.0 11.3 0.00 0.00 0.00 86 969.5
20260831074101 16 73 8.0 14.5 0.00 0.00 0.00 86 969.4
20260831073638 16 262 8.0 8.0 0.00 0.00 0.00 86 969.7
20260831073203 16 187 4.8 8.0 0.00 0.00 0.00 86 969.2
20260831072723 16 308 9.7 0.0 0.00 0.00 0.00 90 969.2
20260831072259 16 355 3.2 11.3 0.00 0.00 0.00 90 969.2
20260831071833 16 297 6.4 4.8 0.00 0.00 0.00 90 969.2
20260831071359 16 307 0.0 4.8 0.00 0.00 0.00 91 969.3
20260831070928 16 307 6.4 11.3 0.00 0.00 0.00 91 969.3
20260831070448 16 307 3.2 14.5 0.00 0.00 0.00 94 969.2
20260831070028 16 307 6.4 14.5 0.00 0.00 0.00 94 969.0
20260831065618 16 307 6.4 20.9 0.00 0.00 0.00 94 968.9
20260831065139 16 307 9.7 11.3 0.00 0.00 0.00 94 968.8
20260831064728 16 307 0.0 25.7 0.00 0.00 0.00 94 968.7
20260831064313 16 307 6.4 25.7 0.00 0.00 0.00 94 968.7
20260831063848 16 307 8.0 32.2 0.00 0.00 0.00 94 968.7
20260831063428 16 104 8.0 32.2 0.00 0.00 0.00 94 968.6
20260831063008 16 104 9.7 14.5 0.00 0.00 0.00 94 968.6
20260831062543 15 104 4.8 14.5 0.00 0.00 0.00 94 968.7
20260831062058 15 104 4.8 8.0 0.00 0.00 0.00 94 968.6
20260831061618 15 104 4.8 8.0 0.00 0.00 0.00 94 968.5
20260831061133 15 104 3.2 14.5 0.00 0.00 0.00 94 968.5
20260831060708 15 104 3.2 14.5 0.00 0.00 0.00 94 968.3
20260831060248 15 104 4.8 14.5 0.00 0.00 0.00 94 968.5
20260831055833 15 104 11.3 14.5 0.00 0.00 0.00 94 968.5
20260831055359 15 104 3.2 14.5 0.00 0.00 0.00 94 968.4
20260831054933 15 104 1.6 8.0 0.00 0.00 0.00 94 968.3
20260831054518 15 104 1.6 0.0 0.00 0.00 0.00 94 968.1
20260831054053 15 104 1.6 0.0 0.00 0.00 0.00 94 968.0
20260831053643 15 104 0.0 0.0 0.00 0.00 0.00 94 968.0
20260831053203 15 104 0.0 1.6 0.00 0.00 0.00 94 967.9
20260831052738 15 104 0.0 1.6 0.00 0.00 0.00 94 968.0
20260831052243 15 104 0.0 1.6 0.00 0.00 0.00 94 967.9
20260831051758 15 104 0.0 1.6 0.00 0.00 0.00 94 967.9
20260831051323 15 104 1.6 1.6 0.00 0.00 0.00 94 967.9
20260831050853 15 104 1.6 1.6 0.00 0.00 0.00 94 967.9
20260831050413 15 104 1.6 14.5 0.00 0.00 0.00 94 967.9
20260831045953 15 104 0.0 1.6 0.00 0.00 0.00 94 968.0
20260831045512 15 104 0.0 0.0 0.00 0.00 0.00 94 967.7
20260831045033 15 104 0.0 0.0 0.00 0.00 0.00 94 967.6
20260831044606 15 104 1.6 1.6 0.00 0.00 0.00 94 967.5
20260831044138 15 104 1.6 1.6 0.00 0.00 0.00 94 967.7
20260831043703 15 104 1.6 1.6 0.00 0.00 0.00 94 967.6
20260831043238 15 104 1.6 1.6 0.00 0.00 0.00 94 967.5
20260831042758 15 104 1.6 1.6 0.00 0.00 0.00 94 967.6
20260831042308 15 104 1.6 8.0 0.00 0.00 0.00 94 967.4
20260831041858 15 102 6.4 0.0 0.00 0.00 0.00 94 967.3
20260831041423 15 102 3.2 0.0 0.00 0.00 0.00 94 967.7
20260831041003 15 103 1.6 0.0 0.00 0.00 0.00 94 967.5
20260831040533 15 103 1.6 0.0 0.00 0.00 0.00 94 967.7
20260831040128 15 103 1.6 0.0 0.00 0.00 0.00 94 967.7
20260831035643 15 103 1.6 8.0 0.00 0.00 0.00 94 967.7
20260831035213 15 103 1.6 8.0 0.00 0.00 0.00 94 967.8
20260831034758 15 103 3.2 8.0 0.00 0.00 0.00 94 968.0
20260831034313 15 107 3.2 8.0 0.00 0.00 0.00 94 968.2
20260831033823 15 105 12.9 8.0 0.00 0.00 0.00 94 968.3
20260831033353 15 105 12.9 8.0 0.00 0.00 0.00 94 968.5
20260831032923 15 105 1.6 20.9 0.00 0.00 0.00 88 968.4
20260831032503 15 105 1.6 8.0 0.00 0.00 0.00 88 968.8
20260831032047 15 231 1.6 40.2 0.00 0.00 0.00 88 968.9
20260831031558 15 250 1.6 20.9 0.00 0.00 0.00 88 968.1
20260831031113 16 102 1.6 4.8 0.00 0.00 0.00 86 967.2
20260831030613 16 102 1.6 4.8 0.00 0.00 0.00 85 966.4
20260831030128 16 239 1.6 4.8 0.00 0.00 0.00 85 966.3
20260831025658 16 239 0.0 4.8 0.00 0.00 0.00 85 966.8
20260831025228 16 239 4.8 8.0 0.00 0.00 0.00 85 966.8
20260831024759 16 239 4.8 4.8 0.00 0.00 0.00 85 966.7
20260831024338 16 239 1.6 1.6 0.00 0.00 0.00 85 966.8
20260831023923 16 239 1.6 1.6 0.00 0.00 0.00 85 966.8
20260831023438 16 239 0.0 4.8 0.00 0.00 0.00 85 966.6
20260831022958 16 239 0.0 1.6 0.00 0.00 0.00 85 966.8
20260831022518 16 239 0.0 4.8 0.00 0.00 0.00 85 966.8
20260831022023 16 239 0.0 0.0 0.00 0.00 0.00 85 966.9
20260831021553 15 239 0.0 1.6 0.00 0.00 0.00 85 967.1
20260831021138 15 239 0.0 1.6 0.00 0.00 0.00 85 966.9
20260831020719 15 239 0.0 0.0 0.00 0.00 0.00 85 967.4
20260831020239 15 239 0.0 0.0 0.00 0.00 0.00 85 967.0
20260831015758 15 239 0.0 1.6 0.00 0.00 0.00 85 967.1
20260831015305 15 239 0.0 1.6 0.00 0.00 0.00 85 967.1
20260831014833 15 239 0.0 1.6 0.00 0.00 0.00 85 967.1
20260831014358 15 239 0.0 1.6 0.00 0.00 0.00 85 967.2
20260831013933 15 239 0.0 1.6 0.00 0.00 0.00 85 967.3
20260831013508 15 239 0.0 1.6 0.00 0.00 0.00 85 967.4
20260831013023 15 239 1.6 1.6 0.00 0.00 0.00 85 967.4
20260831012619 15 239 0.0 4.8 0.00 0.00 0.00 85 967.2
20260831012203 15 239 0.0 1.6 0.00 0.00 0.00 85 967.5
20260831011739 15 239 1.6 0.0 0.00 0.00 0.00 85 967.6
20260831011318 15 239 3.2 0.0 0.00 0.00 0.00 88 967.4
20260831010858 14 239 0.0 0.0 0.00 0.00 0.00 88 967.7
20260831010419 14 239 0.0 1.6 0.00 0.00 0.00 88 967.5
20260831005933 14 239 0.0 1.6 0.00 0.00 0.00 88 967.6
20260831005458 14 239 0.0 0.0 0.00 0.00 0.00 88 967.7
20260831005019 14 239 0.0 4.8 0.00 0.00 0.00 88 967.9
20260831004538 14 239 0.0 4.8 0.00 0.00 0.00 88 967.9
20260831004113 14 239 0.0 1.6 0.00 0.00 0.00 88 968.1
20260831003643 14 239 1.6 4.8 0.00 0.00 0.00 88 968.0
20260831003213 14 239 0.0 0.0 0.00 0.00 0.00 89 968.1
20260831002728 14 239 0.0 0.0 0.00 0.00 0.00 88 968.1
20260831002253 14 282 0.0 1.6 0.00 0.00 0.00 88 968.2
20260831001843 14 282 0.0 1.6 0.00 0.00 0.00 88 968.2
20260831001419 14 282 0.0 1.6 0.00 0.00 0.00 86 968.4
20260831000958 14 282 0.0 1.6 0.00 0.00 0.00 86 968.5
20260831000533 14 282 0.0 1.6 0.00 0.00 0.00 86 968.3
20260831000119 13 282 0.0 1.6 0.00 0.00 0.00 86 968.2
20260830235643 13 282 0.0 1.6 0.00 0.00 0.00 86 968.4
20260830235203 15 282 0.0 1.6 0.00 0.00 0.00 86 968.4
20260830234748 15 282 0.0 1.6 0.00 0.00 0.00 86 968.6
20260830234318 15 282 0.0 1.6 0.00 0.00 0.00 86 968.5
20260830233858 15 282 0.0 1.6 0.00 0.00 0.00 86 968.5
20260830233448 15 282 1.6 1.6 0.00 0.00 0.00 86 968.5
20260830233023 14 282 1.6 1.6 0.00 0.00 0.00 86 968.6
20260830232608 14 282 1.6 1.6 0.00 0.00 0.00 86 968.4
20260830232123 14 282 0.0 1.6 0.00 0.00 0.00 86 968.7
20260830231708 14 282 0.0 1.6 0.00 0.00 0.00 86 968.7
20260830231223 15 282 0.0 1.6 0.00 0.00 0.00 86 968.6
20260830230808 15 282 0.0 1.6 0.00 0.00 0.00 86 968.6
20260830230333 15 282 0.0 1.6 0.00 0.00 0.00 85 968.8
20260830225843 15 282 0.0 1.6 0.00 0.00 0.00 81 968.8